.
WxDataArchive / Data Records for 2011-08-12
2011-08-11 August 2011 2011-08-13

Data Records for Friday, 12 August 2011

Time	Temp	Chill	HIndex	Humid	Dewpt	 Wind 	HiWind	WindDir	Rain 	Barom 
-----	----	-----	------	-----	-----	------	------	-------	-----	----- 
00:00	62.0	62.0	62.0	77	54.7	0	0	---	0.00	29.989 
00:05	61.8	61.8	61.8	77	54.5	0	0	---	0.00	29.989 
00:10	61.6	61.6	61.6	78	54.7	0	0	---	0.00	29.989 
00:15	61.5	61.5	61.5	78	54.6	0	0	---	0.00	29.990 
00:20	61.3	61.3	61.3	79	54.7	0	0	---	0.00	29.990 
00:25	61.3	61.3	61.3	79	54.7	0	0	---	0.00	29.990 
00:30	61.2	61.2	61.2	80	55.0	0	0	---	0.00	29.990 
00:35	61.2	61.2	61.2	80	55.0	0	0	---	0.00	29.990 
00:40	61.0	61.0	61.0	80	54.8	0	0	---	0.00	29.990 
00:45	60.9	60.9	60.9	80	54.7	0	0	---	0.00	29.990 
00:50	60.9	60.9	60.9	81	55.0	0	0	---	0.00	29.990 
00:55	60.7	60.7	60.7	81	54.8	0	0	---	0.00	29.990 
01:00	60.5	60.5	60.5	81	54.6	0	0	---	0.00	29.990 
01:05	60.4	60.4	60.4	81	54.5	0	0	---	0.00	29.990 
01:10	60.2	60.2	60.2	82	54.7	0	0	---	0.00	29.990 
01:15	60.1	60.1	60.1	82	54.6	0	0	---	0.00	29.992 
01:20	59.9	59.9	59.9	83	54.7	0	0	---	0.00	29.992 
01:25	59.9	59.9	59.9	83	54.7	0	0	---	0.00	29.992 
01:30	59.8	59.8	59.8	84	55.0	0	0	---	0.00	29.993 
01:35	59.6	59.6	59.6	84	54.8	0	0	---	0.00	29.993 
01:40	59.6	59.6	59.6	84	54.8	0	0	---	0.00	29.993 
01:45	59.5	59.5	59.5	84	54.7	0	0	---	0.00	29.995 
01:50	59.3	59.3	59.3	84	54.5	0	0	---	0.00	29.995 
01:55	59.3	59.3	59.3	85	54.8	0	0	---	0.00	29.995 
02:00	59.2	59.2	59.2	85	54.7	0	0	---	0.00	29.993 
02:05	59.0	59.0	59.0	86	54.8	0	0	---	0.00	29.993 
02:10	59.0	59.0	59.0	86	54.8	0	0	---	0.00	29.993 
02:15	58.9	58.9	58.9	86	54.7	0	0	---	0.00	29.991 
02:20	58.9	58.9	58.9	86	54.7	0	0	---	0.00	29.991 
02:25	58.7	58.7	58.7	86	54.5	0	0	---	0.00	29.991 
02:30	58.7	58.7	58.7	86	54.5	0	0	---	0.00	29.987 
02:35	58.6	58.6	58.6	86	54.4	0	0	---	0.00	29.987 
02:40	58.6	58.6	58.6	87	54.7	0	0	---	0.00	29.987 
02:45	58.4	58.4	58.4	87	54.5	0	0	---	0.00	29.973 
02:50	58.4	58.4	58.4	87	54.5	0	0	---	0.00	29.973 
02:55	58.3	58.3	58.3	87	54.4	0	0	---	0.00	29.973 
03:00	58.3	58.3	58.3	87	54.4	0	0	---	0.00	29.971 
03:05	58.3	58.3	58.3	88	54.8	0	0	---	0.00	29.971 
03:10	58.3	58.3	58.3	88	54.8	0	0	---	0.00	29.971 
03:15	58.1	58.1	58.1	88	54.6	0	0	---	0.00	29.973 
03:20	58.1	58.1	58.1	88	54.6	0	0	---	0.00	29.973 
03:25	58.1	58.1	58.1	89	54.9	0	0	---	0.00	29.973 
03:30	58.0	58.0	58.0	89	54.8	0	0	---	0.00	29.987 
03:35	57.8	57.8	57.8	89	54.6	0	0	---	0.00	29.987 
03:40	57.8	57.8	57.8	89	54.6	0	0	---	0.00	29.987 
03:45	57.6	57.6	57.6	90	54.7	0	0	---	0.00	29.988 
03:50	57.5	57.5	57.5	90	54.6	0	0	---	0.00	29.988 
03:55	57.5	57.5	57.5	90	54.6	0	0	---	0.00	29.988 
04:00	57.3	57.3	57.3	90	54.4	0	0	---	0.00	29.992 
04:05	57.3	57.3	57.3	90	54.4	0	0	---	0.00	29.992 
04:10	57.2	57.2	57.2	90	54.3	0	0	---	0.00	29.992 
04:15	57.2	57.2	57.2	91	54.6	0	0	---	0.00	29.994 
04:20	57.0	57.0	57.0	91	54.4	0	0	---	0.00	29.994 
04:25	57.0	57.0	57.0	91	54.4	0	0	---	0.00	29.994 
04:30	57.0	57.0	57.0	91	54.4	0	0	---	0.00	29.999 
04:35	56.9	56.9	56.9	91	54.3	0	0	---	0.00	29.999 
04:40	56.9	56.9	56.9	91	54.3	0	0	---	0.00	29.999 
04:45	56.7	56.7	56.7	91	54.1	0	0	---	0.00	30.003 
04:50	56.6	56.6	56.6	91	54.0	0	0	---	0.00	30.003 
04:55	56.6	56.6	56.6	91	54.0	0	0	---	0.00	30.003 
05:00	56.5	56.5	56.5	91	53.9	0	0	---	0.00	30.007 
05:05	56.5	56.5	56.5	91	53.9	0	0	---	0.00	30.007 
05:10	56.3	56.3	56.3	92	54.0	0	0	---	0.00	30.007 
05:15	56.2	56.2	56.2	92	53.9	0	0	---	0.00	30.005 
05:20	56.2	56.2	56.2	92	53.9	0	0	---	0.00	30.005 
05:25	56.2	56.2	56.2	92	53.9	0	0	---	0.00	30.005 
05:30	56.2	56.2	56.2	92	53.9	0	0	---	0.00	30.003 
05:35	56.0	56.0	56.0	92	53.7	0	0	---	0.00	30.003 
05:40	55.9	55.9	55.9	92	53.6	0	0	---	0.00	30.003 
05:45	55.9	55.9	55.9	92	53.6	0	0	---	0.00	30.000 
05:50	55.9	55.9	55.9	92	53.6	0	0	---	0.00	30.000 
05:55	55.9	55.9	55.9	92	53.6	0	0	---	0.00	30.000 
06:00	55.9	55.9	55.9	92	53.6	0	0	---	0.00	29.998 
06:05	55.7	55.7	55.7	92	53.4	0	0	---	0.00	29.998 
06:10	55.7	55.7	55.7	92	53.4	0	0	---	0.00	29.998 
06:15	55.6	55.6	55.6	92	53.3	0	0	---	0.00	30.006 
06:20	55.6	55.6	55.6	93	53.6	0	0	---	0.00	30.006 
06:25	55.6	55.6	55.6	93	53.6	0	0	---	0.00	30.006 
06:30	55.6	55.6	55.6	93	53.6	0	0	---	0.00	30.009 
06:35	55.4	55.4	55.4	93	53.4	0	0	---	0.00	30.009 
06:40	55.4	55.4	55.4	93	53.4	0	0	---	0.00	30.009 
06:45	55.3	55.3	55.3	93	53.3	0	0	---	0.00	30.012 
06:50	55.3	55.3	55.3	93	53.3	0	0	---	0.00	30.012 
06:55	55.3	55.3	55.3	93	53.3	0	0	---	0.00	30.012 
07:00	55.4	55.4	55.4	93	53.4	0	0	---	0.00	30.020 
07:05	55.4	55.4	55.4	93	53.4	0	0	---	0.00	30.020 
07:10	55.4	55.4	55.4	93	53.4	0	0	---	0.00	30.020 
07:15	55.4	55.4	55.4	93	53.4	0	0	---	0.00	30.027 
07:20	55.6	55.6	55.6	94	53.9	0	0	---	0.00	30.027 
07:25	55.6	55.6	55.6	94	53.9	0	0	---	0.00	30.027 
07:30	55.7	55.7	55.7	94	54.0	0	0	---	0.00	30.026 
07:35	55.9	55.9	55.9	94	54.2	0	0	---	0.00	30.026 
07:40	56.0	56.0	56.0	94	54.3	0	0	---	0.00	30.026 
07:45	56.5	56.5	56.5	95	55.1	0	0	---	0.00	30.038 
07:50	57.0	57.0	57.0	95	55.6	0	0	---	0.00	30.038 
07:55	57.8	57.8	57.8	95	56.4	0	0	---	0.00	30.038 
08:00	58.4	58.4	58.4	95	57.0	0	0	---	0.00	30.039 
08:05	59.0	59.0	59.0	95	57.6	0	0	---	0.00	30.039 
08:10	59.9	59.9	59.9	94	58.2	0	0	---	0.00	30.039 
08:15	60.9	60.9	60.9	92	58.6	0	0	---	0.00	30.042 
08:20	62.0	62.0	62.0	88	58.4	0	0	---	0.00	30.042 
08:25	63.1	63.1	63.1	85	58.5	0	1	112	0.00	30.042 
08:30	64.3	64.3	64.3	83	59.0	0	0	---	0.00	30.045 
08:35	65.5	65.5	65.5	78	58.5	0	1	112	0.00	30.045 
08:40	66.6	66.6	66.6	74	58.0	0	1	112	0.00	30.045 
08:45	67.4	67.4	67.4	72	58.1	0	1	112	0.00	30.041 
08:50	68.4	68.4	68.4	69	57.8	0	0	---	0.00	30.041 
08:55	69.4	69.4	69.4	66	57.5	0	1	112	0.00	30.041 
09:00	70.1	70.1	70.1	64	57.3	0	1	112	0.00	30.038 
09:05	70.8	70.8	70.8	64	58.0	0	1	112	0.00	30.038 
09:10	71.5	71.5	71.5	61	57.3	0	1	112	0.00	30.038 
09:15	72.0	72.0	72.0	61	57.8	0	0	---	0.00	30.045 
09:20	72.7	72.7	72.7	59	57.5	0	1	112	0.00	30.045 
09:25	73.2	73.2	73.2	57	57.0	0	1	112	0.00	30.045 
09:30	73.7	73.7	73.7	57	57.5	0	1	112	0.00	30.038 
09:35	74.2	74.2	74.2	54	56.5	0	1	112	0.00	30.038 
09:40	74.4	74.4	74.4	54	56.7	0	2	112	0.00	30.038 
09:45	74.6	74.6	74.6	55	57.3	0	1	112	0.00	30.041 
09:50	74.9	74.9	74.9	54	57.1	0	1	112	0.00	30.041 
09:55	75.6	75.6	77.8	55	58.3	0	2	112	0.00	30.041 
10:00	76.1	76.1	78.1	53	57.7	0	1	112	0.00	30.038 
10:05	76.8	76.8	78.5	50	56.7	0	2	112	0.00	30.038 
10:10	77.0	77.0	78.6	49	56.4	0	2	112	0.00	30.038 
10:15	77.4	77.4	78.8	49	56.7	0	1	112	0.00	30.044 
10:20	77.7	77.7	78.9	48	56.4	0	2	112	0.00	30.044 
10:25	77.7	77.7	78.9	47	55.8	0	2	112	0.00	30.044 
10:30	77.7	77.7	78.9	47	55.8	0	2	158	0.00	30.039 
10:35	77.7	77.7	78.9	47	55.8	1	3	158	0.00	30.039 
10:40	77.6	77.6	78.8	47	55.8	0	2	202	0.00	30.039 
10:45	77.7	77.7	78.8	45	54.6	0	3	180	0.00	30.041 
10:50	77.9	77.9	79.0	46	55.4	0	3	315	0.00	30.041 
10:55	78.8	78.8	79.3	42	53.7	1	2	0	0.00	30.041 
11:00	79.2	79.2	79.5	42	54.1	1	3	112	0.00	30.048 
11:05	79.4	79.4	79.6	41	53.6	1	3	112	0.00	30.048 
11:10	79.6	79.6	79.7	41	53.8	0	3	112	0.00	30.048 
11:15	79.9	79.9	79.9	40	53.4	1	3	112	0.00	30.050 
11:20	79.8	79.8	79.7	39	52.6	2	5	68	0.00	30.050 
11:25	79.4	79.4	79.6	41	53.6	1	3	68	0.00	30.050 
11:30	79.2	79.2	79.3	39	52.1	2	4	68	0.00	30.052 
11:35	79.4	79.4	79.5	39	52.3	1	3	68	0.00	30.052 
11:40	79.6	79.6	79.6	39	52.4	2	6	90	0.00	30.052 
11:45	79.4	79.4	79.5	40	52.9	1	6	68	0.00	30.058 
11:50	79.8	79.8	80.0	42	54.6	1	4	90	0.00	30.058 
11:55	79.8	79.8	79.8	40	53.3	2	4	112	0.00	30.058 
12:00	79.6	79.6	79.6	39	52.4	2	4	90	0.00	30.051 
12:05	79.4	79.4	79.5	40	52.9	2	5	90	0.00	30.051 
12:10	79.6	79.6	79.7	40	53.1	1	2	90	0.00	30.051 
12:15	80.3	80.3	80.1	39	53.1	0	1	90	0.00	30.047 
12:20	80.9	80.9	80.6	40	54.3	1	3	68	0.00	30.047 
12:25	81.4	81.4	80.9	39	54.0	0	2	68	0.00	30.047 
12:30	81.6	81.6	80.9	38	53.5	1	3	45	0.00	30.047 
12:35	81.6	81.6	80.8	37	52.8	1	4	112	0.00	30.047 
12:40	81.1	81.1	80.7	40	54.5	2	5	68	0.00	30.047 
12:45	80.3	80.3	80.1	39	53.1	1	3	68	0.00	30.040 
12:50	79.2	79.2	79.5	41	53.4	0	2	248	0.00	30.040 
12:55	79.4	79.4	79.5	40	52.9	0	2	292	0.00	30.040 
13:00	80.7	80.7	80.4	40	54.1	1	3	292	0.00	30.046 
13:05	80.9	80.9	80.3	37	52.2	1	4	270	0.00	30.046 
13:10	80.5	80.5	80.4	41	54.6	1	3	270	0.00	30.046 
13:15	80.7	80.7	80.4	40	54.1	1	4	90	0.00	30.036 
13:20	81.4	81.4	80.7	37	52.6	1	4	90	0.00	30.036 
13:25	81.8	81.8	81.0	37	53.0	2	4	90	0.00	30.036 
13:30	81.4	81.4	80.7	37	52.6	0	2	112	0.00	30.034 
13:35	82.0	82.0	81.1	37	53.1	1	3	112	0.00	30.034 
13:40	82.6	82.6	81.7	38	54.4	1	2	112	0.00	30.034 
13:45	82.8	82.8	81.6	35	52.3	0	2	225	0.00	30.035 
13:50	83.0	83.0	82.0	37	54.0	0	4	68	0.00	30.035 
13:55	83.2	83.2	81.7	33	51.1	1	3	112	0.00	30.035 
14:00	83.0	83.0	82.2	39	55.5	1	6	112	0.00	30.029 
14:05	83.0	83.0	81.7	35	52.5	2	6	90	0.00	30.029 
14:10	82.4	82.4	81.2	35	52.0	1	3	90	0.00	30.029 
14:15	81.6	81.6	80.8	37	52.8	1	4	90	0.00	30.023 
14:20	81.2	81.2	80.6	38	53.1	0	2	292	0.00	30.023 
14:25	81.2	81.2	80.5	37	52.4	1	4	270	0.00	30.023 
14:30	81.4	81.4	80.8	38	53.3	1	4	338	0.00	30.020 
14:35	81.6	81.6	80.9	38	53.5	2	4	90	0.00	30.020 
14:40	81.6	81.6	80.8	37	52.8	1	5	270	0.00	30.020 
14:45	81.6	81.6	80.8	37	52.8	1	6	90	0.00	30.011 
14:50	82.0	82.0	81.2	38	53.9	1	4	248	0.00	30.011 
14:55	81.8	81.8	81.1	38	53.7	1	3	292	0.00	30.011 
15:00	81.8	81.8	81.1	38	53.7	1	5	112	0.00	30.003 
15:05	81.4	81.4	80.8	38	53.3	2	5	112	0.00	30.003 
15:10	81.6	81.6	80.9	38	53.5	1	3	90	0.00	30.003 
15:15	81.6	81.6	80.6	35	51.3	1	2	90	0.00	30.000 
15:20	81.8	81.8	80.9	36	52.2	1	5	90	0.00	30.000 
15:25	82.2	82.2	81.3	37	53.3	1	3	0	0.00	30.000 
15:30	82.0	82.0	81.2	38	53.9	1	3	90	0.00	29.994 
15:35	82.2	82.2	81.4	38	54.0	1	4	90	0.00	29.994 
15:40	82.6	82.6	81.4	35	52.1	1	4	90	0.00	29.994 
15:45	82.8	82.8	81.7	36	53.1	1	5	90	0.00	29.992 
15:50	82.4	82.4	81.2	35	52.0	2	5	112	0.00	29.992 
15:55	82.4	82.4	81.1	34	51.2	2	5	90	0.00	29.992 
16:00	82.2	82.2	81.1	35	51.8	1	4	90	0.00	29.990 
16:05	82.4	82.4	81.1	34	51.2	1	4	90	0.00	29.990 
16:10	82.8	82.8	81.7	36	53.1	1	4	90	0.00	29.990 
16:15	82.8	82.8	81.6	35	52.3	1	4	90	0.00	29.985 
16:20	82.6	82.6	81.6	37	53.7	1	2	90	0.00	29.985 
16:25	82.6	82.6	81.4	35	52.1	2	7	90	0.00	29.985 
16:30	82.4	82.4	81.3	36	52.7	1	3	90	0.00	29.978 
16:35	82.6	82.6	81.3	34	51.4	1	3	90	0.00	29.978 
16:40	82.6	82.6	81.4	35	52.1	1	4	68	0.00	29.978 
16:45	82.2	82.2	81.1	35	51.8	2	5	90	0.00	29.985 
16:50	82.0	82.0	81.0	36	52.4	0	2	90	0.00	29.985 
16:55	82.0	82.0	81.2	38	53.9	0	3	112	0.00	29.985 
17:00	81.6	81.6	80.9	38	53.5	1	4	112	0.00	29.984 
17:05	81.6	81.6	80.9	38	53.5	1	4	90	0.00	29.984 
17:10	82.0	82.0	81.1	37	53.1	1	3	90	0.00	29.984 
17:15	82.2	82.2	81.4	38	54.0	1	2	90	0.00	29.981 
17:20	82.2	82.2	81.5	39	54.7	0	3	90	0.00	29.981 
17:25	82.0	82.0	80.9	35	51.6	0	3	90	0.00	29.981 
17:30	81.6	81.6	80.7	36	52.0	1	3	90	0.00	29.982 
17:35	81.4	81.4	80.8	38	53.3	1	4	90	0.00	29.982 
17:40	81.2	81.2	80.6	38	53.1	1	5	112	0.00	29.982 
17:45	80.7	80.7	80.3	39	53.4	1	4	90	0.00	29.978 
17:50	80.3	80.3	80.1	39	53.1	1	3	90	0.00	29.978 
17:55	80.3	80.3	80.1	39	53.1	1	3	90	0.00	29.978 
18:00	79.9	79.9	79.9	40	53.4	0	2	90	0.00	29.974 
18:05	79.8	79.8	79.9	41	54.0	0	2	90	0.00	29.974 
18:10	79.8	79.8	79.9	41	54.0	0	2	68	0.00	29.974 
18:15	79.8	79.8	79.9	41	54.0	0	2	68	0.00	29.971 
18:20	79.4	79.4	79.6	41	53.6	0	3	68	0.00	29.971 
18:25	79.4	79.4	79.7	42	54.3	0	1	90	0.00	29.971 
18:30	79.2	79.2	79.5	41	53.4	0	2	90	0.00	29.966 
18:35	79.4	79.4	79.7	42	54.3	0	3	90	0.00	29.966 
18:40	79.6	79.6	79.8	42	54.5	0	2	90	0.00	29.966 
18:45	79.6	79.6	79.8	42	54.5	1	3	90	0.00	29.960 
18:50	79.6	79.6	79.8	42	54.5	0	2	90	0.00	29.960 
18:55	79.4	79.4	79.7	42	54.3	1	3	112	0.00	29.960 
19:00	79.2	79.2	79.5	42	54.1	1	3	112	0.00	29.952 
19:05	79.2	79.2	79.5	42	54.1	1	3	22	0.00	29.952 
19:10	79.2	79.2	79.6	43	54.7	0	2	112	0.00	29.952 
19:15	79.0	79.0	79.5	43	54.6	0	2	112	0.00	29.958 
19:20	79.0	79.0	79.5	43	54.6	0	1	112	0.00	29.958 
19:25	79.0	79.0	79.6	44	55.2	0	1	112	0.00	29.958 
19:30	78.8	78.8	79.4	43	54.4	0	2	112	0.00	29.959 
19:35	78.5	78.5	79.2	44	54.7	0	1	112	0.00	29.959 
19:40	78.1	78.1	79.0	44	54.4	0	1	112	0.00	29.959 
19:45	77.9	77.9	78.9	45	54.8	0	1	112	0.00	29.955 
19:50	77.6	77.6	78.8	46	55.2	0	1	112	0.00	29.955 
19:55	77.4	77.4	78.7	46	55.0	0	2	112	0.00	29.955 
20:00	77.2	77.2	78.6	46	54.8	0	1	112	0.00	29.956 
20:05	77.0	77.0	78.5	47	55.2	0	0	---	0.00	29.956 
20:10	76.8	76.8	78.4	47	55.0	0	1	112	0.00	29.956 
20:15	76.7	76.7	78.4	47	54.9	0	1	112	0.00	29.951 
20:20	76.5	76.5	78.3	49	55.9	0	0	---	0.00	29.951 
20:25	76.3	76.3	78.2	48	55.1	0	0	---	0.00	29.951 
20:30	76.1	76.1	78.1	49	55.5	0	0	---	0.00	29.952 
20:35	75.8	75.8	78.0	49	55.3	0	1	112	0.00	29.952 
20:40	75.6	75.6	77.9	50	55.6	0	0	---	0.00	29.952 
20:45	75.3	75.3	77.7	50	55.4	0	1	112	0.00	29.954 
20:50	75.1	75.1	77.6	52	56.3	0	0	---	0.00	29.954 
20:55	74.6	74.6	74.6	52	55.8	0	0	---	0.00	29.954 
21:00	74.2	74.2	74.2	53	56.0	0	0	---	0.00	29.956 
21:05	73.9	73.9	73.9	54	56.2	0	0	---	0.00	29.956 
21:10	73.5	73.5	73.5	56	56.8	0	0	---	0.00	29.956 
21:15	73.2	73.2	73.2	55	56.0	0	0	---	0.00	29.953 
21:20	72.7	72.7	72.7	57	56.6	0	0	---	0.00	29.953 
21:25	72.3	72.3	72.3	58	56.7	0	0	---	0.00	29.953 
21:30	72.0	72.0	72.0	58	56.4	0	0	---	0.00	29.956 
21:35	71.8	71.8	71.8	58	56.2	0	0	---	0.00	29.956 
21:40	71.5	71.5	71.5	60	56.9	0	0	---	0.00	29.956 
21:45	71.1	71.1	71.1	60	56.5	0	0	---	0.00	29.961 
21:50	70.9	70.9	70.9	62	57.2	0	0	---	0.00	29.961 
21:55	70.6	70.6	70.6	63	57.4	0	0	---	0.00	29.961 
22:00	70.1	70.1	70.1	64	57.3	0	0	---	0.00	29.959 
22:05	69.9	69.9	69.9	64	57.2	0	0	---	0.00	29.959 
22:10	69.6	69.6	69.6	64	56.9	0	0	---	0.00	29.959 
22:15	69.4	69.4	69.4	65	57.1	0	0	---	0.00	29.965 
22:20	69.3	69.3	69.3	65	57.0	0	0	---	0.00	29.965 
22:25	68.9	68.9	68.9	66	57.1	0	0	---	0.00	29.965 
22:30	68.8	68.8	68.8	66	57.0	0	0	---	0.00	29.965 
22:35	68.6	68.6	68.6	68	57.6	0	0	---	0.00	29.965 
22:40	68.4	68.4	68.4	69	57.8	0	0	---	0.00	29.965 
22:45	68.4	68.4	68.4	69	57.8	0	0	---	0.00	29.954 
22:50	68.3	68.3	68.3	69	57.7	0	0	---	0.00	29.954 
22:55	68.1	68.1	68.1	69	57.5	0	0	---	0.00	29.954 
23:00	68.1	68.1	68.1	70	57.9	0	0	---	0.00	29.952 
23:05	67.9	67.9	67.9	71	58.1	0	0	---	0.00	29.952 
23:10	67.9	67.9	67.9	71	58.1	0	0	---	0.00	29.952 
23:15	67.8	67.8	67.8	71	58.0	0	0	---	0.00	29.949 
23:20	67.6	67.6	67.6	71	57.9	0	0	---	0.00	29.949 
23:25	67.8	67.8	67.8	70	57.6	0	0	---	0.00	29.949 
23:30	67.8	67.8	67.8	71	58.0	0	0	---	0.00	29.945 
23:35	67.8	67.8	67.8	71	58.0	0	0	---	0.00	29.945 
23:40	67.9	67.9	67.9	71	58.1	0	0	---	0.00	29.945 
23:45	67.9	67.9	67.9	71	58.1	0	0	---	0.00	29.941 
23:50	67.9	67.9	67.9	71	58.1	0	0	---	0.00	29.941 
23:55	67.9	67.9	67.9	71	58.1	0	0	---	0.00	29.941 

CoCoRaHS
IN-AL-39
A2 Web Hosting
Creative Commons License
GoDaddy
search engine by freefind advanced

loaded 2018-11-13 01:48:52 • last modified 2010-11-18 10:43:29
Privacy PolicyDisclaimer
• wx.awcolley.com is powered by PmWiki v.2002016 •
• all content (unless otherwise noted) © 2018 A W Colley